www.pogodaiklimat.ru

Погода и климат >> Архив погоды >> Индонезия >> Аэропорт Япура


ПОГОДА в Аэропорту Япура

  • Прогноз погоды в Аэропорту Япура
  • Монитор погоды в Аэропорту Япура

АРХИВ ПОГОДЫ в Аэропорту Япура

Время (UTC), дата Ветер
(напр.,м/с)
 
Видим.   Явления Облачность Т
(С)
Тd
(С)
f
(%)
Тe
(С)
Тes
(С)
Комфортность P
(гПа)
Po
(гПа)
Тmin
(С)
Tmax
(С)
R
(мм)
R24
(мм)
S
(см)
15 13.06 штиль 0 6000 м 10/8 420 м
[Sc As op]
+27.2 +24.6 86 +39 +39 очень
душно
1011.5 1009.1
18 13.06 штиль 0 6000 м 10/8 420 м
[Sc As op]
+25.6 +24.1 91 +35 +35 очень
душно
1011.7 1009.4
21 13.06 штиль 0 6000 м 10/8 420 м
[Sc As op]
+27.2 +24.6 86 +39 +39 очень
душно
1011.5 1009.1
00 14.06 штиль 0 5000 м мгла 9/6 450 м
[Sc As op Ci sp]
+24.8 +24.2 96 +34 +34 очень
душно
1009.8 1007.4 +24.2
03 14.06 штиль 0 9000 м 6/4 450 м
[Sc As op Ci fib]
+31.0 +25.2 71 +45 +54 опасность
перегрева
1010.6 1008.2
06 14.06 Ю 3 9000 м 5/4 450 м
[Sc As op Ci fib]
+33.4 +24.8 61 +47 +56 опасность
перегрева
1008.1 1005.7
09 14.06 штиль 0 9000 м 8/5 450 м
[Sc As op Ci fib]
+33.8 +24.7 59 +47 +49 опасность
перегрева
1005.5 1003.1
12 14.06 штиль 0 9000 м 4/1 450 м
[Sc As op Ci fib]
+29.8 +26.0 80 +45 +45 опасность
перегрева
1007.5 1005.1 +33.8
15 14.06 штиль 0 6000 м 9/6 450 м
[Sc As op Ci sp]
+27.6 +25.0 86 +40 +40 очень
душно
1010.2 1007.8
18 14.06 штиль 0 6000 м 9/6 450 м
[Sc As op Ci sp]
+27.0 +24.1 84 +37 +37 очень
душно
1010.2 1007.8
21 14.06 штиль 0 6000 м 9/6 450 м
[Sc As op Ci sp]
+27.6 +25.0 86 +40 +40 очень
душно
1010.2 1007.8
00 15.06 штиль 0 6000 м 9/6 450 м
[Sc As op Ci sp]
+25.8 +24.0 90 +36 +36 очень
душно
1010.6 1008.2 +22.8
03 15.06 штиль 0 4000 м дождь 10/8 360 м
[Sc As op]
+24.6 +24.3 98 +34 +35 очень
душно
1012.8 1010.4 11
06 15.06 штиль 0 4000 м слаб. дождь 10/8 360 м
[Sc As op]
+24.6 +24.3 98 +34 +35 очень
душно
1011.2 1008.8 31
09 15.06 штиль 0 7000 м {дождь} 10/6 450 м
[Sc As op]
+27.0 +25.3 90 +39 +40 очень
душно
1008.4 1006.0 0.2
12 15.06 штиль 0 6000 м {дождь} 9/6 450 м
[Sc As op Ci sp]
+26.6 +24.8 90 +38 +38 очень
душно
1008.7 1006.3 +27.8 0.2
15 15.06 штиль 0 6000 м 9/6 450 м
[Sc As op Ci sp]
+25.4 +24.8 96 +36 +36 очень
душно
1010.5 1008.1
18 15.06 штиль 0 6000 м 9/6 450 м
[Sc As op Ci sp]
+25.0 +24.7 98 +35 +35 очень
душно
1010.2 1007.9
21 15.06 штиль 0 5000 м мгла 9/6 450 м
[Sc As op Ci sp]
+24.6 +24.3 98 +34 +34 очень
душно
1008.7 1006.3
00 16.06 штиль 0 5000 м мгла 9/6 450 м
[Sc As op Ci sp]
+24.0 +23.7 98 +33 +33 очень
душно
1010.1 1007.8 +24.0 42
03 16.06 штиль 0 7000 м 9/6 450 м
[Sc As op Ci sp]
+27.4 +24.5 84 +39 +43 очень
душно
1011.8 1009.4
06 16.06 штиль 0 8000 м 9/6 450 м
[Cu med, cong As op Ci sp]
+31.2 +24.9 69 +44 +50 опасность
перегрева
1009.7 1007.3
09 16.06 штиль 0 7000 м 9/6 450 м
[Cu med, cong As op Ci sp]
+29.6 +25.6 79 +44 +45 опасность
перегрева
1007.6 1005.2
12 16.06 ЮВ 3 5000 м слаб. дождь 10/8 400 м
[Cu med, cong As op]
+27.0 +24.7 87 +38 +38 очень
душно
1008.8 1006.4 +31.8 0.1
15 16.06 штиль 0 6000 м {дождь} 9/6 450 м
[Sc As op Ci sp]
+25.0 +24.4 96 +35 +35 очень
душно
1010.4 1008.0 0.5
18 16.06 штиль 0 5000 м мгла {дождь} 9/6 450 м
[Sc As op Ci sp]
+24.4 +23.8 96 +33 +33 очень
душно
1009.9 1007.5 0.5
21 16.06 штиль 0 5000 м 9/6 450 м
[Sc As op Ci sp]
+24.2 +23.9 98 +33 +33 очень
душно
1009.2 1006.8
00 17.06 штиль 0 6000 м 9/6 450 м
[Sc As op Ci sp]
+24.4 +24.1 98 +34 +34 очень
душно
1010.0 1007.7 +23.8 0.6
03 17.06 штиль 0 8000 м 9/6 450 м
[Sc As op Ci sp]
+27.8 +25.8 89 +41 +46 опасность
перегрева
1011.4 1009.0
06 17.06 Ю 2 9000 м 8/5 420 м
[Sc As op Ci fib]
+31.2 +24.6 68 +44 +50 опасность
перегрева
1009.2 1006.8
09 17.06 ЮЗ 2 9000 м 8/5 420 м
[Sc As op Ci fib]
+30.8 +25.3 73 +45 +47 опасность
перегрева
1007.1 1004.7
12 17.06 штиль 0 9000 м 8/4 450 м
[Sc As op Ci fib]
+28.6 +26.3 87 +43 +43 опасность
перегрева
1009.2 1006.8 +32.8
15 17.06 штиль 0 6000 м гроза, ливневой дождь 10/8 420 м
[Cb cap As op]
+25.4 +24.2 93 +35 +35 очень
душно
1011.0 1008.6 3
18 17.06 штиль 0 6000 м {гроза, дождь} 10/8 420 м
[Sc As op]
+25.0 +24.1 95 +34 +34 очень
душно
1011.2 1008.8 0.2
21 17.06 штиль 0 6000 м 10/8 420 м
[Sc As op]
+25.4 +24.2 93 +35 +35 очень
душно
1011.0 1008.4
00 18.06 штиль 0 5000 м мгла 9/6 450 м
[Sc As op Ci sp]
+24.6 +24.0 96 +34 +34 очень
душно
1009.9 1007.5 +24.0 3
03 18.06 штиль 0 7000 м 9/6 420 м
[Sc As op Ci sp]
+27.0 +25.4 91 +39 +44 очень
душно
1011.7 1009.4
06 18.06 штиль 0 4800 м 10/8 400 м
[Sc As op]
+25.0 +23.3 90 +33 +34 очень
душно
1010.4 1008.0
09 18.06 штиль 0 7000 м гроза, ливневой дождь 10/8
[Cb cap As op]
+24.4 +23.8 96 +33 +33 очень
душно
1008.6 1006.2 5
12 18.06 штиль 0 8000 м 9/6 400 м
[Sc As op Ci sp]
+24.6 +24.0 96 +34 +34 очень
душно
1008.2 1005.9 +27.0 0.2
15 18.06 штиль 0 6000 м 10/8 420 м
[Sc As op]
+24.4 +23.8 96 +33 +33 очень
душно
1010.1 1007.7
18 18.06 штиль 0 6000 м 10/8 420 м
[Sc As op]
+24.2 +23.6 96 +33 +33 очень
душно
1011.0 1008.6
21 18.06 штиль 0 6000 м 10/8 420 м
[Sc As op]
+24.4 +23.8 96 +33 +33 очень
душно
1010.1 1007.7
00 19.06 штиль 0 600 м туман 9/6 450 м
[Sc As op Ci sp]
+24.0 +23.4 96 +32 +32 очень
душно
1009.6 1007.2 +23.6 5
03 19.06 штиль 0 7000 м {туман} 9/6 450 м
[Sc As op Ci sp]
+28.4 +24.9 81 +41 +45 опасность
перегрева
1010.8 1008.4
06 19.06 В 3 7000 м {туман} 9/6 450 м
[Cu med, cong As op Ci sp]
+30.6 +24.8 71 +43 +47 опасность
перегрева
1009.0 1006.6
09 19.06 штиль 0 7000 м 9/6 450 м
[Cu med, cong As op Ci sp]
+30.6 +24.8 71 +43 +45 опасность
перегрева
1006.8 1004.4
12 19.06 штиль 0 6000 м 9/6 450 м
[Sc As op Ci sp]
+28.0 +25.1 84 +40 +40 очень
душно
1007.8 1005.4 +31.6
15 19.06 штиль 0 6000 м 9/6 450 м
[Sc As op Ci sp]
+26.8 +24.4 87 +38 +38 очень
душно
1009.5 1007.1
18 19.06 штиль 0 6000 м 9/6 450 м
[Sc As op Ci sp]
+25.8 +24.3 91 +36 +36 очень
душно
1009.7 1007.3
21 19.06 штиль 0 6000 м 9/6 450 м
[Sc As op Ci sp]
+26.8 +24.4 87 +38 +38 очень
душно
1009.5 1007.1
00 20.06 штиль 0 5000 м мгла 9/6 450 м
[Sc As op Ci sp]
+24.6 +24.0 96 +34 +34 очень
душно
1009.4 1007.0 +23.8
03 20.06 штиль 0 7000 м 9/6 450 м
[Sc As op Ci sp]
+29.2 +24.6 76 +41 +46 опасность
перегрева
1009.9 1007.5
06 20.06 штиль 0 8000 м 9/6 450 м
[Sc As op Ci sp]
+31.6 +24.8 67 +45 +51 опасность
перегрева
1008.9 1006.1
09 20.06 штиль 0 8000 м 9/6 450 м
[Sc As op Ci sp]
+32.4 +24.4 63 +45 +47 опасность
перегрева
1006.2 1003.8
12 20.06 штиль 0 7000 м 9/6 450 м
[Sc As op Ci sp]
+29.2 +26.0 83 +44 +44 опасность
перегрева
1007.4 1005.0 +32.6

 

Местоположение метеостанции Аэропорт Япура (Индонезия): широта -0.33 долгота 102.31 высота над уровнем моря 46 м.

В архиве по умолчанию представлена погода в Аэропорту Япура за последнюю неделю. Архивные данные за месяц целиком и за предыдущие месяцы, начиная с января 2011 года, Вы можете получить, выбрав интересующий диапазон дат из раскрывающегося списка и нажав кнопку "Ввод!".


*Определитесь, кто Вы:
робот инопланетянин человек

Внимание! Время в таблицах - всемирное. Для получения местного времени необходимо прибавить поправку, которая равна 7 ч.

Смотрите также архив погоды в соседних городах и на ближайших метеорологических станциях:

Погода в Пеканбару (Индонезия) (131 км)
Погода в Джамби (Индонезия) (208 км)
Погода в Паданге (Индонезия) (226 км)
Погода в Аэропорту Дабо (Индонезия) (253 км)
Погода в Аэропорту Ханга Надима (Индонезия) (257 км)
Погода в Сингапуре (Сингапур) (265 км)
Погода в Аэропорту Сеная (Малайзия) (265 км)
Погода в Танджунгпинанге (Индонезия) (283 км)
Погода в Малакке (Малайзия) (289 км)
Погода на Керинчи (Индонезия) (291 км)

Пояснения к столбцам:

Ветер - указаны скорость ветра в м/с - средняя за 10 мин, порывы в срок и между сроками (в фигурных скобках) и направление, откуда дует ветер: С - северный, СВ - северо-восточный, В - восточный, ЮВ - юго-восточный, Ю - южный, ЮЗ - юго-западный, З - западный, СЗ - северо-западный.
Видимость - горизонтальная дальность видимости в метрах или километрах. При видимости от 1 до 10 км при отсутствии осадков обычно наблюдается дымка, при ухудшении видимости до 1 км и менее - туман. В сухую погоду видимость может ухудшаться дымом, пылью или мглою.
Явления - указаны атмосферные явления, наблюдавшиеся в срок или в последний час перед сроком; фигурными скобками обозначены явления, наблюдавшиеся между сроками (за 1-3 часа до срока); квадратными скобками обозначены град или гололедные отложения с указанием их диаметра в мм.
Облачность - указаны через наклонную черту общая и нижняя облачность в баллах и высота нижней границы облаков в метрах; квадратными скобками обозначены формы облаков: Ci - перистые, Cs - перисто-слоистые, Cc - перисто-кучевые, Ac - высококучевые, As - высокослоистые, Sc - слоисто-кучевые, Ns - слоисто-дождевые, Cu - кучевые, Cb - кучево-дождевые. Подробнее классификацию облаков см. в Атласе облаков (PDF).
T - Температура воздуха - температура, измеренная на высоте 2 м над землей.
Td - Температура точки росы - температура, при понижении до которой содержащийся в воздухе водяной пар достигнет насыщения.
f - Относительная влажность воздуха - влажноcть воздуха, измеренная на высоте 2 м над землей.
Te - Эффективная температура - температура, которую ощущает одетый по сезону человек в тени. Характеристика душности погоды. При расчете учитывается влияние влажности воздуха и скорости ветра на теплоощущения человека.
Tes - Эффективная температура на солнце - температура, которую ощущает человек, с поправкой на солнечный нагрев. Характеристика знойности погоды. Зависит от высоты солнца над горизонтом, облачности и скорости ветра. Ночью, в пасмурную погоду, а также при ветре 12 м/с и более поправка равна нулю.
P - Атмосферное давление - приведенное к уровню моря атмосферное давление.
Po - Атмосферное давление - измеренное на уровне метеостанции атмосферное давление.
Tmin - Минимальная температура - минимум температуры воздуха на высоте 2 м над землей.
Tmax - Максимальная температура - максимум температуры воздуха на высоте 2 м над землей.
R - Количество осадков - Количество выпавших осадков за период времени, мм. При наведении курсора мыши на число - период времени, за который выпало указанное количество осадков.
R24 - Количество осадков - Количество выпавших осадков за 24 часа, мм.
S - Снежный покров - Высота снежного покрова, см. При наведении курсора мыши на число - состояние снежного покрова и степень покрытия местности в баллах.